Weather History for Minot, ND

Change the Weather History Date:

Tuesday, March 11, 2014

  Actual Average Record
Temperature  
Mean Temperature 33 °F 26 °F  
Max Temperature 39 °F 34 °F 66 °F (1990)
Min Temperature 26 °F 17 °F -17 °F (1998)
Degree Days  
Heating Degree Days 32 39  
Month to date heating degree days 540 455  
Since 1 July heating degree days 7773 7031  
Cooling Degree Days 0 0  
Month to date cooling degree days 0 0  
Year to date cooling degree days 0 0  
Moisture  
Dew Point 26 °F    
Average Humidity 76    
Maximum Humidity 92    
Minimum Humidity 59    
Precipitation  
Precipitation 0.00 in 0.02 in 0.45 in (2011)
Month to date precipitation 0.03 0.22  
Year to date precipitation 0.39 1.13  
Sea Level Pressure  
Sea Level Pressure 30.09 in    
Wind  
Wind Speed 10 mph (WNW)    
Max Wind Speed 20 mph    
Max Gust Speed 24 mph    
Visibility 10 miles    
Events      
T = Trace of Precipitation, MM = Missing Value Source: NWS Daily Summary

Daily Weather History Graph

Daily Weather History Graph

Search for Another Location

Airport:

Trip Planner

Search our weather history database for the weather conditions in past years. The results will help you decide how hot, cold, wet, or windy it might be!

Date:

Astronomy

Mar. 11, 2014 Rise Set
Actual Time 8:06 AM CDT 7:44 PM CDT
Civil Twilight 7:35 AM CDT 8:15 PM CDT
Nautical Twilight 6:59 AM CDT 8:51 PM CDT
Astronomical Twilight 6:22 AM CDT 9:28 PM CDT
Moon 3:06 PM CDT (3/11) 5:18 AM CDT (3/11)
Length of Visible Light 12h 40m
Length of Day
11h 38m
Waxing Gibbous, 78% of the Moon is Illuminated
Mar 11
Waxing Gibbous
Mar 16
Full
Mar 23
Last Quarter
Mar 30
New
Apr 7
First Quarter

Hourly Weather History & Observations

Time (CDT) Temp. Windchill Dew Point Humidity Pressure Visibility Wind Dir Wind Speed Gust Speed Precip Events Conditions
12:54 AM 33.1 °F 24.9 °F 28.0 °F 82% 29.86 in 10.0 mi WNW 10.4 mph - N/A   Clear
1:54 AM 30.9 °F 23.5 °F 28.0 °F 89% 29.88 in 10.0 mi WNW 8.1 mph - N/A   Clear
2:54 AM 30.9 °F 21.7 °F 27.0 °F 85% 29.92 in 10.0 mi WNW 11.5 mph - N/A   Clear
3:54 AM 30.9 °F 21.7 °F 27.0 °F 85% 29.94 in 10.0 mi WNW 11.5 mph - N/A   Clear
4:54 AM 30.0 °F 21.1 °F 26.1 °F 85% 29.95 in 10.0 mi WNW 10.4 mph - N/A   Clear
5:54 AM 30.0 °F 20.0 °F 26.1 °F 85% 29.97 in 10.0 mi NW 12.7 mph - N/A   Clear
6:54 AM 28.9 °F 21.9 °F 25.0 °F 85% 30.00 in 10.0 mi WNW 6.9 mph - N/A   Clear
7:54 AM 27.0 °F 20.5 °F 23.0 °F 85% 30.04 in 10.0 mi West 5.8 mph - N/A   Clear
8:54 AM 28.0 °F 18.1 °F 25.0 °F 88% 30.08 in 10.0 mi NW 11.5 mph - N/A   Clear
9:32 AM 28.9 °F 17.7 °F 24.1 °F 82% 30.04 in 10.0 mi NNW 15.0 mph - N/A   Partly Cloudy
9:54 AM 28.9 °F 18.6 °F 24.1 °F 82% 30.11 in 10.0 mi NW 12.7 mph - N/A   Partly Cloudy
10:54 AM 30.9 °F 22.2 °F 25.0 °F 79% 30.14 in 10.0 mi NW 10.4 mph - N/A   Clear
11:54 AM 33.1 °F 25.5 °F 26.1 °F 75% 30.15 in 10.0 mi WNW 9.2 mph - N/A   Clear
12:54 PM 36.0 °F 27.1 °F 28.0 °F 73% 30.17 in 10.0 mi NW 13.8 mph - N/A   Partly Cloudy
1:12 PM 35.1 °F 25.5 °F 28.0 °F 76% 30.12 in 10.0 mi NW 15.0 mph - N/A   Mostly Cloudy
1:28 PM 36.0 °F 26.3 °F 28.0 °F 73% 30.12 in 10.0 mi NW 16.1 mph 24.2 mph N/A   Mostly Cloudy
1:54 PM 36.0 °F 26.7 °F 28.0 °F 73% 30.19 in 10.0 mi NW 15.0 mph 23.0 mph N/A   Overcast
2:02 PM 36.0 °F 26.3 °F 28.0 °F 73% 30.13 in 10.0 mi NW 16.1 mph - N/A   Overcast
2:54 PM 37.9 °F 30.0 °F 27.0 °F 65% 30.18 in 10.0 mi NW 12.7 mph - N/A   Overcast
3:54 PM 37.0 °F 27.7 °F 24.1 °F 59% 30.19 in 10.0 mi NW 16.1 mph - N/A   Overcast
4:54 PM 37.9 °F 29.6 °F 24.1 °F 57% 30.19 in 10.0 mi NW 13.8 mph 21.9 mph N/A   Mostly Cloudy
5:54 PM 37.9 °F 30.5 °F 26.1 °F 62% 30.18 in 10.0 mi WNW 11.5 mph - N/A   Partly Cloudy
6:54 PM 36.0 °F 29.6 °F 26.1 °F 67% 30.17 in 10.0 mi NW 8.1 mph - N/A   Clear
7:54 PM 34.0 °F 29.8 °F 26.1 °F 73% 30.18 in 10.0 mi West 4.6 mph - N/A   Clear
8:54 PM 32.0 °F 27.5 °F 25.0 °F 75% 30.18 in 10.0 mi SW 4.6 mph - N/A   Clear
9:54 PM 30.0 °F 25.2 °F 25.0 °F 82% 30.18 in 10.0 mi NW 4.6 mph - N/A   Mostly Cloudy
10:33 PM 32.0 °F - 26.1 °F 79% 30.10 in 10.0 mi Calm Calm - N/A   Scattered Clouds
10:54 PM 30.0 °F - 26.1 °F 85% 30.17 in 10.0 mi Calm Calm - N/A   Clear
11:54 PM 28.0 °F 20.8 °F 25.0 °F 88% 30.17 in 10.0 mi West 6.9 mph - N/A   Clear